Time,TemperatureF,DewpointF,PressureIn,WindDirection,WindDirectionDegrees,WindSpeedMPH,WindSpeedGustMPH,Humidity,HourlyPrecipIn,Conditions,Clouds,dailyrainin,SoftwareType,DateUTC
2013-08-19 00:11:00,68.1,59.0,30.15,East,91,2.0,5.0,73,0.00,,,0.00,weatherlink.com 1.10,2013-08-19 04:11:00,
2013-08-19 00:26:00,67.8,58.0,30.15,East,89,0.0,2.0,72,0.00,,,0.00,weatherlink.com 1.10,2013-08-19 04:26:00,
2013-08-19 00:41:00,67.7,58.0,30.15,East,89,1.0,2.0,72,0.00,,,0.00,weatherlink.com 1.10,2013-08-19 04:41:00,
2013-08-19 01:11:00,67.1,59.0,30.15,ESE,105,0.0,1.0,74,0.00,,,0.00,weatherlink.com 1.10,2013-08-19 05:11:00,
2013-08-19 01:26:00,66.7,59.0,30.15,SE,141,0.0,1.0,75,0.00,,,0.00,weatherlink.com 1.10,2013-08-19 05:26:00,
2013-08-19 01:41:00,66.8,59.0,30.14,SSW,200,0.0,1.0,75,0.00,,,0.00,weatherlink.com 1.10,2013-08-19 05:41:00,
2013-08-19 01:56:00,67.0,60.0,30.14,West,281,3.0,3.0,79,0.00,,,0.00,weatherlink.com 1.10,2013-08-19 05:56:00,
2013-08-19 02:11:00,67.0,61.0,30.14,WSW,256,4.0,4.0,82,0.00,,,0.00,weatherlink.com 1.10,2013-08-19 06:11:00,
2013-08-19 02:26:00,67.0,62.0,30.14,West,271,3.0,6.0,85,0.00,,,0.00,weatherlink.com 1.10,2013-08-19 06:26:00,
2013-08-19 02:41:00,66.8,62.0,30.14,West,259,5.0,7.0,83,0.00,,,0.00,weatherlink.com 1.10,2013-08-19 06:41:00,
2013-08-19 02:56:00,66.4,60.0,30.14,West,280,3.0,6.0,81,0.00,,,0.00,weatherlink.com 1.10,2013-08-19 06:56:00,
2013-08-19 03:11:00,66.4,61.0,30.14,WNW,283,8.0,8.0,82,0.00,,,0.00,weatherlink.com 1.10,2013-08-19 07:11:00,
2013-08-19 03:26:00,66.2,61.0,30.13,West,262,5.0,9.0,82,0.00,,,0.00,weatherlink.com 1.10,2013-08-19 07:26:00,
2013-08-19 03:41:00,66.2,60.0,30.13,WSW,250,3.0,9.0,81,0.00,,,0.00,weatherlink.com 1.10,2013-08-19 07:41:00,
2013-08-19 03:56:00,66.2,60.0,30.13,WSW,250,4.0,6.0,81,0.00,,,0.00,weatherlink.com 1.10,2013-08-19 07:56:00,
2013-08-19 04:11:00,66.1,61.0,30.13,WSW,252,4.0,6.0,82,0.00,,,0.00,weatherlink.com 1.10,2013-08-19 08:11:00,
2013-08-19 04:26:00,65.7,60.0,30.12,WSW,243,3.0,6.0,83,0.00,,,0.00,weatherlink.com 1.10,2013-08-19 08:26:00,
2013-08-19 04:41:00,65.2,60.0,30.13,WSW,243,6.0,8.0,83,0.00,,,0.00,weatherlink.com 1.10,2013-08-19 08:41:00,
2013-08-19 04:56:00,65.3,60.0,30.13,SW,222,6.0,9.0,82,0.00,,,0.00,weatherlink.com 1.10,2013-08-19 08:56:00,
2013-08-19 05:11:00,65.2,59.0,30.13,West,260,6.0,9.0,80,0.00,,,0.00,weatherlink.com 1.10,2013-08-19 09:11:00,
2013-08-19 05:26:00,65.6,59.0,30.13,West,281,9.0,12.0,78,0.00,,,0.00,weatherlink.com 1.10,2013-08-19 09:26:00,
2013-08-19 05:41:00,66.4,59.0,30.13,WSW,250,8.0,12.0,76,0.00,,,0.00,weatherlink.com 1.10,2013-08-19 09:41:00,
2013-08-19 05:56:00,66.4,59.0,30.14,West,269,11.0,14.0,77,0.00,,,0.00,weatherlink.com 1.10,2013-08-19 09:56:00,
2013-08-19 06:11:00,65.7,59.0,30.14,West,280,5.0,12.0,79,0.00,,,0.00,weatherlink.com 1.10,2013-08-19 10:11:00,
2013-08-19 06:26:00,65.1,59.0,30.14,West,281,5.0,11.0,81,0.00,,,0.00,weatherlink.com 1.10,2013-08-19 10:26:00,
2013-08-19 06:41:00,65.1,60.0,30.14,West,268,7.0,10.0,83,0.00,,,0.00,weatherlink.com 1.10,2013-08-19 10:41:00,
2013-08-19 06:56:00,65.2,60.0,30.14,WNW,288,6.0,10.0,83,0.00,,,0.00,weatherlink.com 1.10,2013-08-19 10:56:00,
2013-08-19 07:11:00,65.8,59.0,30.14,WNW,284,5.0,8.0,79,0.00,,,0.00,weatherlink.com 1.10,2013-08-19 11:11:00,
2013-08-19 07:26:00,65.7,59.0,30.15,WNW,282,5.0,10.0,80,0.00,,,0.00,weatherlink.com 1.10,2013-08-19 11:26:00,
2013-08-19 07:41:00,66.0,60.0,30.14,West,274,5.0,8.0,80,0.00,,,0.00,weatherlink.com 1.10,2013-08-19 11:41:00,
2013-08-19 07:56:00,66.0,60.0,30.14,WNW,287,5.0,9.0,80,0.00,,,0.00,weatherlink.com 1.10,2013-08-19 11:56:00,
2013-08-19 08:11:00,66.2,60.0,30.13,West,271,6.0,8.0,81,0.00,,,0.00,weatherlink.com 1.10,2013-08-19 12:11:00,
2013-08-19 08:26:00,66.9,61.0,30.13,WSW,257,4.0,8.0,82,0.00,,,0.00,weatherlink.com 1.10,2013-08-19 12:26:00,
2013-08-19 08:41:00,67.8,62.0,30.14,WNW,291,7.0,10.0,81,0.00,,,0.00,weatherlink.com 1.10,2013-08-19 12:41:00,
2013-08-19 08:56:00,68.7,63.0,30.14,West,278,7.0,9.0,82,0.00,,,0.00,weatherlink.com 1.10,2013-08-19 12:56:00,
2013-08-19 09:11:00,69.4,63.0,30.13,WNW,283,6.0,9.0,80,0.00,,,0.00,weatherlink.com 1.10,2013-08-19 13:11:00,
2013-08-19 09:26:00,70.3,63.0,30.13,West,280,6.0,8.0,78,0.00,,,0.00,weatherlink.com 1.10,2013-08-19 13:26:00,
2013-08-19 09:41:00,70.7,63.0,30.13,WNW,285,5.0,7.0,76,0.00,,,0.00,weatherlink.com 1.10,2013-08-19 13:41:00,
2013-08-19 09:56:00,71.4,63.0,30.13,WNW,282,5.0,8.0,75,0.00,,,0.00,weatherlink.com 1.10,2013-08-19 13:56:00,
2013-08-19 10:12:00,72.1,63.0,30.12,WSW,252,4.0,6.0,73,0.00,,,0.00,weatherlink.com 1.10,2013-08-19 14:12:00,
2013-08-19 10:27:00,72.5,62.0,30.12,West,276,8.0,10.0,70,0.00,,,0.00,weatherlink.com 1.10,2013-08-19 14:27:00,
2013-08-19 10:42:00,72.8,62.0,30.12,West,259,6.0,8.0,70,0.00,,,0.00,weatherlink.com 1.10,2013-08-19 14:42:00,
2013-08-19 10:57:00,73.2,62.0,30.12,West,274,7.0,11.0,69,0.00,,,0.00,weatherlink.com 1.10,2013-08-19 14:57:00,
2013-08-19 11:12:00,73.9,63.0,30.11,WSW,243,6.0,10.0,68,0.00,,,0.00,weatherlink.com 1.10,2013-08-19 15:12:00,
2013-08-19 11:27:00,74.7,62.0,30.11,West,262,6.0,10.0,64,0.00,,,0.00,weatherlink.com 1.10,2013-08-19 15:27:00,
2013-08-19 11:42:00,75.2,62.0,30.11,West,273,7.0,9.0,64,0.00,,,0.00,weatherlink.com 1.10,2013-08-19 15:42:00,
2013-08-19 11:57:00,74.8,62.0,30.11,WSW,252,8.0,9.0,64,0.00,,,0.00,weatherlink.com 1.10,2013-08-19 15:57:00,
2013-08-19 12:12:00,75.9,62.0,30.11,WSW,257,6.0,12.0,63,0.00,,,0.00,weatherlink.com 1.10,2013-08-19 16:12:00,
2013-08-19 12:27:00,76.7,63.0,30.10,West,271,5.0,8.0,63,0.00,,,0.00,weatherlink.com 1.10,2013-08-19 16:27:00,
2013-08-19 12:42:00,76.9,63.0,30.09,SSW,212,2.0,8.0,62,0.00,,,0.00,weatherlink.com 1.10,2013-08-19 16:42:00,
2013-08-19 12:57:00,77.7,63.0,30.08,West,277,4.0,7.0,60,0.00,,,0.00,weatherlink.com 1.10,2013-08-19 16:57:00,
2013-08-19 13:12:00,76.3,63.0,30.08,WNW,287,6.0,11.0,63,0.00,,,0.00,weatherlink.com 1.10,2013-08-19 17:12:00,
2013-08-19 13:27:00,75.8,61.0,30.09,West,274,6.0,9.0,61,0.00,,,0.00,weatherlink.com 1.10,2013-08-19 17:27:00,
2013-08-19 13:42:00,75.8,63.0,30.09,West,281,7.0,10.0,64,0.00,,,0.00,weatherlink.com 1.10,2013-08-19 17:42:00,
2013-08-19 13:57:00,75.2,63.0,30.08,WNW,283,5.0,12.0,67,0.00,,,0.00,weatherlink.com 1.10,2013-08-19 17:57:00,
2013-08-19 14:12:00,75.2,63.0,30.07,WNW,286,7.0,10.0,65,0.00,,,0.00,weatherlink.com 1.10,2013-08-19 18:12:00,
2013-08-19 14:27:00,75.1,63.0,30.08,WNW,284,7.0,12.0,66,0.00,,,0.00,weatherlink.com 1.10,2013-08-19 18:27:00,
2013-08-19 14:42:00,75.1,64.0,30.07,WNW,282,12.0,13.0,69,0.00,,,0.00,weatherlink.com 1.10,2013-08-19 18:42:00,
2013-08-19 14:57:00,75.0,62.0,30.07,WNW,284,11.0,14.0,65,0.00,,,0.00,weatherlink.com 1.10,2013-08-19 18:57:00,
2013-08-19 15:12:00,74.7,63.0,30.07,West,262,7.0,16.0,67,0.00,,,0.00,weatherlink.com 1.10,2013-08-19 19:12:00,
2013-08-19 15:27:00,74.6,63.0,30.07,West,278,12.0,15.0,67,0.00,,,0.00,weatherlink.com 1.10,2013-08-19 19:27:00,
2013-08-19 15:42:00,74.4,63.0,30.07,WNW,283,13.0,14.0,68,0.00,,,0.00,weatherlink.com 1.10,2013-08-19 19:42:00,
2013-08-19 15:57:00,74.3,63.0,30.07,West,272,10.0,12.0,68,0.00,,,0.00,weatherlink.com 1.10,2013-08-19 19:57:00,
2013-08-19 16:12:00,74.8,64.0,30.07,West,277,8.0,15.0,69,0.00,,,0.00,weatherlink.com 1.10,2013-08-19 20:12:00,
2013-08-19 16:27:00,74.9,63.0,30.07,West,271,9.0,17.0,66,0.00,,,0.00,weatherlink.com 1.10,2013-08-19 20:27:00,
2013-08-19 16:42:00,75.1,65.0,30.07,WNW,285,10.0,12.0,70,0.00,,,0.00,weatherlink.com 1.10,2013-08-19 20:42:00,
2013-08-19 16:57:00,74.9,65.0,30.07,West,281,12.0,17.0,71,0.00,,,0.00,weatherlink.com 1.10,2013-08-19 20:57:00,
2013-08-19 17:12:00,75.0,66.0,30.06,West,278,6.0,13.0,73,0.00,,,0.00,weatherlink.com 1.10,2013-08-19 21:12:00,
2013-08-19 17:27:00,75.9,66.0,30.06,West,274,9.0,10.0,72,0.00,,,0.00,weatherlink.com 1.10,2013-08-19 21:27:00,
2013-08-19 17:42:00,76.4,67.0,30.06,West,260,6.0,11.0,72,0.00,,,0.00,weatherlink.com 1.10,2013-08-19 21:42:00,
2013-08-19 17:57:00,76.4,66.0,30.06,WSW,242,15.0,16.0,71,0.00,,,0.00,weatherlink.com 1.10,2013-08-19 21:57:00,
2013-08-19 18:12:00,75.7,67.0,30.06,West,271,11.0,18.0,74,0.00,,,0.00,weatherlink.com 1.10,2013-08-19 22:12:00,
2013-08-19 18:27:00,76.3,67.0,30.06,WNW,285,6.0,14.0,73,0.00,,,0.00,weatherlink.com 1.10,2013-08-19 22:27:00,
2013-08-19 18:42:00,75.6,67.0,30.06,West,277,14.0,17.0,74,0.00,,,0.00,weatherlink.com 1.10,2013-08-19 22:42:00,
2013-08-19 18:57:00,75.4,67.0,30.06,West,268,10.0,13.0,75,0.00,,,0.00,weatherlink.com 1.10,2013-08-19 22:57:00,
2013-08-19 19:13:00,74.9,67.0,30.06,West,276,4.0,10.0,77,0.00,,,0.00,weatherlink.com 1.10,2013-08-19 23:13:00,
2013-08-19 19:28:00,74.8,68.0,30.06,WNW,283,6.0,10.0,78,0.00,,,0.00,weatherlink.com 1.10,2013-08-19 23:28:00,
2013-08-19 19:43:00,74.1,67.0,30.06,West,264,7.0,12.0,78,0.00,,,0.00,weatherlink.com 1.10,2013-08-19 23:43:00,
2013-08-19 19:58:00,73.7,67.0,30.06,West,269,5.0,10.0,79,0.00,,,0.00,weatherlink.com 1.10,2013-08-19 23:58:00,
2013-08-19 20:13:00,73.2,67.0,30.05,WSW,258,8.0,8.0,81,0.00,,,0.00,weatherlink.com 1.10,2013-08-20 00:13:00,
2013-08-19 20:28:00,72.9,67.0,30.06,WNW,283,5.0,8.0,82,0.00,,,0.00,weatherlink.com 1.10,2013-08-20 00:28:00,
2013-08-19 20:43:00,72.6,67.0,30.06,WSW,257,3.0,7.0,83,0.00,,,0.00,weatherlink.com 1.10,2013-08-20 00:43:00,
2013-08-19 20:58:00,72.5,67.0,30.06,West,260,4.0,8.0,84,0.00,,,0.00,weatherlink.com 1.10,2013-08-20 00:58:00,
2013-08-19 21:13:00,72.2,67.0,30.07,West,277,3.0,8.0,83,0.00,,,0.00,weatherlink.com 1.10,2013-08-20 01:13:00,
2013-08-19 21:28:00,72.0,67.0,30.07,WSW,249,6.0,8.0,85,0.00,,,0.00,weatherlink.com 1.10,2013-08-20 01:28:00,
2013-08-19 21:43:00,71.8,67.0,30.07,WNW,290,6.0,10.0,85,0.00,,,0.00,weatherlink.com 1.10,2013-08-20 01:43:00,
2013-08-19 21:58:00,71.6,67.0,30.08,WNW,287,7.0,10.0,85,0.00,,,0.00,weatherlink.com 1.10,2013-08-20 01:58:00,
2013-08-19 22:13:00,71.3,67.0,30.07,West,269,6.0,10.0,85,0.00,,,0.00,weatherlink.com 1.10,2013-08-20 02:13:00,
2013-08-19 22:28:00,71.1,66.0,30.07,WNW,285,7.0,12.0,85,0.00,,,0.00,weatherlink.com 1.10,2013-08-20 02:28:00,
2013-08-19 22:43:00,71.1,66.0,30.07,WSW,255,8.0,12.0,85,0.00,,,0.00,weatherlink.com 1.10,2013-08-20 02:43:00,
2013-08-19 22:58:00,70.9,67.0,30.08,West,264,10.0,14.0,86,0.00,,,0.00,weatherlink.com 1.10,2013-08-20 02:58:00,
2013-08-19 23:13:00,70.6,67.0,30.08,West,277,5.0,12.0,87,0.00,,,0.00,weatherlink.com 1.10,2013-08-20 03:13:00,
2013-08-19 23:28:00,70.3,66.0,30.08,WSW,253,7.0,11.0,87,0.00,,,0.00,weatherlink.com 1.10,2013-08-20 03:28:00,
2013-08-19 23:43:00,70.0,67.0,30.08,WSW,255,3.0,10.0,89,0.00,,,0.00,weatherlink.com 1.10,2013-08-20 03:43:00,
2013-08-19 23:58:00,69.9,67.0,30.08,WNW,296,6.0,13.0,90,0.00,,,0.00,weatherlink.com 1.10,2013-08-20 03:58:00,